TimeCDT,TemperatureF,Dew PointF,Humidity,Sea Level PressureIn,VisibilityMPH,Wind Direction,Wind SpeedMPH,Gust SpeedMPH,PrecipitationIn,Events,Conditions,WindDirDegrees,DateUTC
12:15 AM,66.2,60.8,83,30.05,10.0,North,3.5,-,N/A,,Clear,350,2013-07-26 05:15:00
12:35 AM,66.2,60.8,83,30.04,10.0,Calm,Calm,-,N/A,,Clear,0,2013-07-26 05:35:00
12:55 AM,64.4,60.8,88,30.05,10.0,NNW,3.5,-,N/A,,Clear,330,2013-07-26 05:55:00
1:15 AM,66.2,60.8,83,30.05,10.0,Calm,Calm,-,N/A,,Clear,0,2013-07-26 06:15:00
1:35 AM,64.4,60.8,88,30.05,10.0,Calm,Calm,-,N/A,,Clear,0,2013-07-26 06:35:00
1:55 AM,64.4,60.8,88,30.05,10.0,Calm,Calm,-,N/A,,Clear,0,2013-07-26 06:55:00
2:15 AM,64.4,60.8,88,30.05,7.0,Calm,Calm,-,N/A,,Clear,0,2013-07-26 07:15:00
2:35 AM,62.6,60.8,94,30.05,7.0,Calm,Calm,-,N/A,,Clear,0,2013-07-26 07:35:00
2:55 AM,62.6,60.8,94,30.05,5.0,Calm,Calm,-,N/A,,Clear,0,2013-07-26 07:55:00
3:15 AM,62.6,59.0,88,30.05,5.0,Calm,Calm,-,N/A,,Clear,0,2013-07-26 08:15:00
3:35 AM,62.6,59.0,88,30.05,5.0,Calm,Calm,-,N/A,,Clear,0,2013-07-26 08:35:00
3:55 AM,62.6,59.0,88,30.05,7.0,Calm,Calm,-,N/A,,Clear,0,2013-07-26 08:55:00
4:15 AM,62.6,59.0,88,30.05,5.0,Calm,Calm,-,N/A,,Clear,0,2013-07-26 09:15:00
4:35 AM,62.6,59.0,88,30.05,4.0,Calm,Calm,-,N/A,,Clear,0,2013-07-26 09:35:00
4:55 AM,62.6,59.0,88,30.05,5.0,Calm,Calm,-,N/A,,Clear,0,2013-07-26 09:55:00
5:15 AM,60.8,59.0,94,30.06,4.0,Calm,Calm,-,N/A,,Clear,0,2013-07-26 10:15:00
5:35 AM,60.8,57.2,88,30.06,7.0,Calm,Calm,-,N/A,,Clear,0,2013-07-26 10:35:00
5:55 AM,60.8,59.0,94,30.06,3.0,Calm,Calm,-,N/A,,Clear,0,2013-07-26 10:55:00
6:15 AM,60.8,59.0,94,30.06,4.0,Calm,Calm,-,N/A,,Scattered Clouds,0,2013-07-26 11:15:00
6:35 AM,60.8,57.2,88,30.06,0.2,Calm,Calm,-,N/A,Fog,Fog,0,2013-07-26 11:35:00
6:55 AM,60.8,57.2,88,30.07,0.2,Calm,Calm,-,N/A,Fog,Fog,0,2013-07-26 11:55:00
7:15 AM,62.6,59.0,88,30.07,3.0,Calm,Calm,-,N/A,,Scattered Clouds,0,2013-07-26 12:15:00
7:35 AM,64.4,60.8,88,30.09,5.0,North,3.5,-,N/A,,Clear,350,2013-07-26 12:35:00
7:55 AM,64.4,62.6,94,30.09,7.0,Calm,Calm,-,N/A,,Clear,0,2013-07-26 12:55:00
8:15 AM,68.0,62.6,83,30.09,5.0,NNW,3.5,-,N/A,,Clear,340,2013-07-26 13:15:00
8:35 AM,69.8,62.6,78,30.08,10.0,Calm,Calm,-,N/A,,Clear,0,2013-07-26 13:35:00
8:55 AM,69.8,62.6,78,30.08,10.0,Calm,Calm,-,N/A,,Clear,0,2013-07-26 13:55:00
9:15 AM,73.4,60.8,65,30.08,10.0,Calm,Calm,-,N/A,,Clear,0,2013-07-26 14:15:00
9:35 AM,73.4,60.8,65,30.08,10.0,Calm,Calm,-,N/A,,Clear,0,2013-07-26 14:35:00
9:55 AM,75.2,60.8,61,30.08,10.0,Calm,Calm,-,N/A,,Clear,0,2013-07-26 14:55:00
10:15 AM,77.0,59.0,54,30.07,10.0,Calm,Calm,-,N/A,,Clear,0,2013-07-26 15:15:00
10:35 AM,78.8,59.0,51,30.07,10.0,Calm,Calm,-,N/A,,Clear,0,2013-07-26 15:35:00
10:55 AM,78.8,59.0,51,30.07,10.0,Calm,Calm,-,N/A,,Clear,0,2013-07-26 15:55:00
11:15 AM,78.8,55.4,44,30.07,10.0,Calm,Calm,-,N/A,,Clear,0,2013-07-26 16:15:00
11:35 AM,80.6,55.4,42,30.06,10.0,Calm,Calm,-,N/A,,Clear,0,2013-07-26 16:35:00
11:55 AM,82.4,53.6,37,30.06,10.0,East,4.6,-,N/A,,Clear,80,2013-07-26 16:55:00
12:15 PM,80.6,55.4,42,30.06,10.0,South,3.5,-,N/A,,Scattered Clouds,190,2013-07-26 17:15:00
12:35 PM,82.4,55.4,39,30.06,10.0,SSW,3.5,-,N/A,,Clear,210,2013-07-26 17:35:00
12:55 PM,82.4,55.4,39,30.06,10.0,WSW,3.5,-,N/A,,Scattered Clouds,240,2013-07-26 17:55:00
1:15 PM,82.4,55.4,39,30.05,10.0,Calm,Calm,-,N/A,,Scattered Clouds,0,2013-07-26 18:15:00
1:35 PM,82.4,53.6,37,30.05,10.0,Calm,Calm,-,N/A,,Scattered Clouds,0,2013-07-26 18:35:00
1:55 PM,82.4,55.4,39,30.04,10.0,West,5.8,-,N/A,,Scattered Clouds,280,2013-07-26 18:55:00
2:15 PM,82.4,57.2,42,30.04,10.0,WSW,3.5,-,N/A,,Scattered Clouds,250,2013-07-26 19:15:00
2:35 PM,82.4,55.4,39,30.04,10.0,Calm,Calm,-,N/A,,Scattered Clouds,0,2013-07-26 19:35:00
2:55 PM,82.4,55.4,39,30.04,10.0,SW,5.8,-,N/A,,Scattered Clouds,220,2013-07-26 19:55:00
3:15 PM,82.4,57.2,42,30.03,10.0,West,4.6,-,N/A,,Scattered Clouds,280,2013-07-26 20:15:00
3:35 PM,84.2,59.0,42,30.03,10.0,WNW,6.9,-,N/A,,Clear,300,2013-07-26 20:35:00
3:55 PM,82.4,55.4,39,30.02,10.0,West,4.6,-,N/A,,Clear,280,2013-07-26 20:55:00
4:15 PM,84.2,55.4,37,30.01,10.0,NW,5.8,-,N/A,,Scattered Clouds,320,2013-07-26 21:15:00
4:35 PM,82.4,55.4,39,30.02,10.0,West,6.9,-,N/A,,Clear,280,2013-07-26 21:35:00
4:55 PM,82.4,55.4,39,30.02,10.0,NW,5.8,-,N/A,,Scattered Clouds,310,2013-07-26 21:55:00
5:15 PM,82.4,57.2,42,30.02,10.0,NW,6.9,-,N/A,,Clear,320,2013-07-26 22:15:00
5:35 PM,80.6,59.0,48,30.02,10.0,NNW,4.6,-,N/A,,Scattered Clouds,330,2013-07-26 22:35:00
5:55 PM,80.6,60.8,51,30.01,10.0,NNW,5.8,-,N/A,,Scattered Clouds,340,2013-07-26 22:55:00
6:15 PM,80.6,60.8,51,30.02,10.0,NNW,5.8,-,N/A,,Clear,330,2013-07-26 23:15:00
6:35 PM,78.8,60.8,54,30.01,10.0,NNW,4.6,-,N/A,,Clear,340,2013-07-26 23:35:00
6:55 PM,78.8,60.8,54,30.01,10.0,Calm,Calm,-,N/A,,Clear,0,2013-07-26 23:55:00
7:15 PM,77.0,64.4,65,30.01,10.0,Calm,Calm,-,N/A,,Clear,0,2013-07-27 00:15:00
7:35 PM,75.2,64.4,69,30.01,10.0,Calm,Calm,-,N/A,,Clear,0,2013-07-27 00:35:00
7:55 PM,73.4,64.4,73,30.01,10.0,Calm,Calm,-,N/A,,Clear,0,2013-07-27 00:55:00
8:15 PM,73.4,64.4,73,30.01,10.0,Calm,Calm,-,N/A,,Clear,0,2013-07-27 01:15:00
8:35 PM,73.4,66.2,78,30.01,10.0,Calm,Calm,-,N/A,,Clear,0,2013-07-27 01:35:00
8:55 PM,71.6,66.2,83,30.01,10.0,Calm,Calm,-,N/A,,Clear,0,2013-07-27 01:55:00
9:15 PM,71.6,64.4,78,30.01,10.0,Calm,Calm,-,N/A,,Clear,0,2013-07-27 02:15:00
9:35 PM,71.6,64.4,78,30.01,10.0,Calm,Calm,-,N/A,,Clear,0,2013-07-27 02:35:00
9:55 PM,71.6,64.4,78,30.01,10.0,Calm,Calm,-,N/A,,Clear,0,2013-07-27 02:55:00
10:15 PM,69.8,66.2,88,30.01,10.0,Calm,Calm,-,N/A,,Clear,0,2013-07-27 03:15:00
10:35 PM,69.8,66.2,88,30.00,10.0,Calm,Calm,-,N/A,,Clear,0,2013-07-27 03:35:00
10:55 PM,69.8,64.4,83,30.00,10.0,Calm,Calm,-,N/A,,Clear,0,2013-07-27 03:55:00
11:15 PM,69.8,64.4,83,30.00,10.0,Calm,Calm,-,N/A,,Clear,0,2013-07-27 04:15:00
11:35 PM,69.8,64.4,83,30.00,7.0,Calm,Calm,-,N/A,,Clear,0,2013-07-27 04:35:00
11:55 PM,69.8,64.4,83,29.99,10.0,Calm,Calm,-,N/A,,Clear,0,2013-07-27 04:55:00